Location: St. Louis
(38.6270°N, 90.1994°W)
Time: 00:37:06
(UTC-06:00)

Vanguard 2 - Pass Details

Date: 06 December 2021
Orbit: 553 x 2936 km, 32.9° (Epoch: 16 January)

Event Time Altitude Azimuth Distance (km) Brightness Sun altitude
Rises 14:38:46 0° 262° (W) 2,944 11.3 17.4°
Reaches altitude 10° 14:40:48 10° 256° (WSW) 2,175 10.9 17.1°
Maximum altitude 14:45:35 49° 181° (S) 1,157 9.2 16.5°
Drops below altitude 10° 14:53:03 10° 109° (ESE) 3,362 10.6 15.5°
Sets 14:56:56 0° 105° (ESE) 4,748 11.3 15.0°
